Regional Weather Roundup
Issued by NWS

Home | Current Version | Previous Version | Graphics & Text | Print | Product List | Glossary Off
Versions: 1 2 3 4 5 6 7 8 9 10 11 12 13 14 15 16 17 18 19 20 21 22 23 24 25 26 27 28 29 30 31 32 33 34 35 36 37 38 39 40 41 42 43 44 45 46 47 48 49 50

000
ASUS43 KMKX 250821
RWRWI

WISCONSIN REGIONAL WEATHER ROUNDUP
NATIONAL WEATHER SERVICE MILWAUKEE/SULLIVAN WI
300 AM CDT WED MAY 25 2016

NOTE: "FAIR" INDICATES FEW OR NO CLOUDS BELOW 12,000 FEET WITH NO
SIGNIFICANT WEATHER AND/OR OBSTRUCTIONS TO VISIBILITY.

WIZ001-002-006>008-014>016-023>028-250900-
NORTHWEST WISCONSIN

CITY           SKY/WX    TMP DP  RH WIND       PRES   REMARKS
SUPERIOR ARPT  FOG       45  45 100 E7        30.04S VSB 3/4
ASHLAND        FOG       49  49 100 CALM      30.03R VSB 1/4
HAYWARD        CLOUDY    55  53  93 N5        30.01R
SIREN          CLOUDY    57  56  97 NE6       29.98S FOG
CUMBERLAND     CLOUDY    59  57  94 NE3       29.98S
RICE LAKE      CLOUDY    61  57  88 CALM      30.00R
CHETEK         CLOUDY    59  58  95 E3        29.99R
LADYSMITH      CLEAR     58  56  92 CALM      30.02R
EAU CLAIRE     CLOUDY    58  55  90 CALM      29.96R
MENOMONIE      CLOUDY    57  55  91 NW3       29.97R
NEW RICHMOND   CLOUDY    61  53  74 E7        29.95F
OSCEOLA        CLOUDY    62  58  85 E7        29.96F
$$

WIZ003>005-009-010-017-018-250900-
NORTH CENTRAL WISCONSIN

CITY           SKY/WX    TMP DP  RH WIND       PRES   REMARKS
MANITOWISH WTR NOT AVBL
ARBOR VITAE    FOG       57  56  96 CALM      30.00F VSB<1/4
WOODRUFF       FOG       57  56  96 CALM      30.00F VSB<1/4
RHINELANDER    FOG       51  50  96 N3        30.02R VSB 1/2
EAGLE RIVER    FOG       58  58 100 CALM      30.01S VSB 1/4
LAND O LAKES   FOG       57  57 100 CALM      30.02S VSB 1/2
PHILLIPS       FOG       51  51 100 CALM      30.01R VSB 1/4
TOMAHAWK       CLEAR     47  47  97 CALM      30.01S FOG
MEDFORD        CLEAR     55  55 100 CALM      29.99R
MERRILL        FOG       51  51 100 CALM      29.99F VSB 3/4
$$

WIZ029-030-035-036-043>047-250900-
CENTRAL WISCONSIN

CITY           SKY/WX    TMP DP  RH WIND       PRES   REMARKS
WAUSAU         CLOUDY    60  57  89 CALM      29.98R
MOSINEE        CLOUDY    54  54 100 CALM      30.01R
MARSHFIELD     CLEAR     61  56  83 E5        29.98R
STEVENS POINT  CLEAR     53  51  92 CALM      30.00R
WAUPACA        CLEAR     59  57  94 CALM      29.98R
WAUTOMA        NOT AVBL
WISC RAPIDS    CLEAR     55  52  89 CALM      30.00R FOG
CAMP DOUGLAS   CLEAR     50  50 100 CALM      29.97R FOG
$$

WIZ011>013-019>022-031-037>040-048>050-250900-
NORTHEAST WISCONSIN

CITY           SKY/WX    TMP DP  RH WIND       PRES   REMARKS
ANTIGO           N/A     50  50  99 CALM      30.00R FOG
SHAWANO        PTCLDY    60  58  94 CALM      29.99R
OCONTO         MOCLDY   N/A N/A N/A NE5       29.99R
STURGEON BAY   NOT AVBL
GREEN BAY      CLEAR     57  55  93 N5        29.97S
MANITOWOC      CLEAR     57  56  96 NW3       29.97R FOG
APPLETON       CLEAR     61  52  72 CALM      29.96S
CLINTONVILLE   CLEAR     57  54  88 CALM      29.98R
OSHKOSH        CLEAR     57  54  89 S7        29.97R
$$

WIZ032>034-041-042-053>061-250900-
SOUTHWEST WISCONSIN

CITY           SKY/WX    TMP DP  RH WIND       PRES   REMARKS
LA CROSSE      CLEAR     62  58  86 E8        29.95S
SPARTA         CLEAR     50  50  99 CALM      29.98S
VIROQUA        CLEAR     63  57  83 E7        29.98S
BOSCOBEL       PTCLDY    58  57  97 CALM      29.97S FOG
PRAIRIE DU CHI CLEAR     62  59  90 CALM      29.94F
PLATTEVILLE    MOCLDY    69  62  78 S3        29.96F
$$

WIZ056-057-062-063-064-067-068-250900-
SOUTH CENTRAL WISCONSIN

CITY           SKY/WX    TMP DP  RH WIND       PRES   REMARKS
REEDSBURG      CLEAR     56  56 100 CALM      29.97S
BARABOO/DELLS  CLEAR     57  54  89 CALM      29.97S
LONE ROCK      PTCLDY    58  57  97 S5        29.97S
MINERAL POINT  PTCLDY    68  61  77 S5        29.97F
MADISON        MOCLDY    62  59  90 CALM      29.97R
MIDDLETON      CLEAR     60  58  92 CALM      29.98R
WATERTOWN      MOCLDY    63  63 100 CALM      29.97S
MONROE         CLEAR     64  59  82 SW7       29.97S
JANESVILLE     PTCLDY    64  63  94 CALM      29.97R
$$

WIZ051-052-058>065-066-070>072-250900-
SOUTHEAST WISCONSIN

CITY           SKY/WX    TMP DP  RH WIND       PRES   REMARKS
MILWAUKEE      PTCLDY    62  52  69 CALM      29.97S
WAUKESHA       CLEAR     61  61 100 CALM      29.99R FOG
MILWAUKEE/TIMM CLEAR     63  59  88 CALM      29.98S
RACINE         PTCLDY    64  54  69 SW5       29.99S
BURLINGTON     PTCLDY    61  59  93 CALM      29.98R
KENOSHA        CLEAR     68  57  68 SW8       29.98S
FOND DU LAC    CLEAR     57  56  96 SE3       29.97S
SHEBOYGAN      FOG       55  54  96 CALM      29.97R VSB 3/4
WEST BEND      CLEAR     59  57  94 CALM      29.98R FOG
JUNEAU         CLEAR     61  58  90 SE3       29.99S
$$

LSZ147-162-250900-
LAKE SUPERIOR

STATION/POSITION TIME  TEMP    WIND        PRES    WAVE
                       AIR SEA DIR/SP/G            HT/PER
                 (UTC) (F)     (DEG/KT/KT) (MB)    (FT/S)
W MID LAKE BUOY  0750   39 38   40/  6/  8 1017.8R   1/ 4
DEVILS ISLAND    0800   45      30/  8/  9 1018.0R
SAXON HARBOR     0700   46     210/  3/  4 1015.6F
$$

LMZ867-665-643>646-250900-
LAKE MICHIGAN

STATION/POSITION TIME  TEMP    WIND        PRES    WAVE
                       AIR SEA DIR/SP/G            HT/PER
                 (UTC) (F)     (DEG/KT/KT) (MB)    (FT/S)
CHAMBERS ISLAND  0700   55      30/  9/ 11 1015.6R
N MID LAKE BUOY  0750   47 44   60/  6/  6 1015.3S   1/ 5
NORTHPORT PIER   0700   53     320/  2/  3 1015.6R
SISTER BAY       0619   54        CALM       N/A
ALGOMA LAKESHORE 0717             CALM       N/A
KEWAUNEE LAKESHO 0700   59      30/  6/  8 1013.7R
SHEBOYGAN LAKESH 0800   63     230/  2/  2 1015.1R
PORT WASHINGTON  0740   62     270/  2/  3 1015.6R
S MID LAKE BUOY  0750   56 49  200/  8/ 10 1015.2R   0
KENOSHA   LAKESH 0800   63     180/ 10/ 10 1014.9S
$$

TC  - TEMPERATURE IN CELSIUS
VSB - VISIBILITY IN STATUTE MILES
WCI - WIND CHILL INDEX
HX  - HEAT INDEX




USA.gov is the U.S. government's official web portal to all federal, state and local government web resources and services.